• en France
  • Liste des pays
  • À 7 jours
  • Température de l'eau
  • Carte satellitaire
  • Carte météo
  • Widgets météo
  • user-avatar
    Se connecter

    Météo par heure à Pasto

    Ce jour, 18 Août, Samedi

    Heure Température Précipitation Vent Pression Humidité
    00:00 +8°C° 0 mm 2 m/s 550 mmHg 77%
    01:00 +8°C° 0 mm 2 m/s 549 mmHg 78%
    02:00 +8°C° 0 mm 2 m/s 549 mmHg 79%
    03:00 +8°C° 0 mm 2 m/s 549 mmHg 79%
    04:00 +8°C° 0 mm 2 m/s 549 mmHg 79%
    05:00 +8°C° 0 mm 2 m/s 549 mmHg 77%
    06:00 +9°C° 0 mm 2 m/s 549 mmHg 76%
    07:00 +9°C° 0 mm 2 m/s 550 mmHg 74%
    08:00 +12°C° 0 mm 2 m/s 551 mmHg 66%
    09:00 +13°C° 0 mm 3 m/s 552 mmHg 58%
    10:00 +17°C° 0 mm 3 m/s 553 mmHg 50%
    11:00 +17°C° 0,1 mm 3 m/s 553 mmHg 49%
    12:00 +18°C° 0,1 mm 3 m/s 553 mmHg 47%
    13:00 +18°C° 0,1 mm 3 m/s 553 mmHg 46%
    14:00 +18°C° 0,2 mm 3 m/s 552 mmHg 48%
    15:00 +17°C° 0,2 mm 3 m/s 552 mmHg 50%
    16:00 +17°C° 0,2 mm 4 m/s 551 mmHg 51%
    17:00 +14°C° 0,2 mm 3 m/s 550 mmHg 61%
    18:00 +13°C° 0,2 mm 2 m/s 549 mmHg 70%
    19:00 +10°C° 0,2 mm 2 m/s 548 mmHg 79%
    20:00 +9°C° 0 mm 2 m/s 548 mmHg 80%
    21:00 +9°C° 0 mm 2 m/s 549 mmHg 80%
    22:00 +9°C° 0 mm 2 m/s 549 mmHg 80%
    23:00 +9°C° 0 mm 2 m/s 549 mmHg 80%

    Demain, 19 Août, Dimanche

    Heure Température Précipitation Vent Pression Humidité
    00:00 +9°C° 0 mm 2 m/s 549 mmHg 81%
    01:00 +9°C° 0 mm 2 m/s 549 mmHg 81%
    02:00 +9°C° 0 mm 2 m/s 548 mmHg 81%
    03:00 +9°C° 0 mm 2 m/s 548 mmHg 81%
    04:00 +9°C° 0 mm 2 m/s 548 mmHg 81%
    05:00 +9°C° 0 mm 2 m/s 548 mmHg 79%
    06:00 +9°C° 0 mm 2 m/s 549 mmHg 78%
    07:00 +10°C° 0 mm 2 m/s 549 mmHg 77%
    08:00 +13°C° 0 mm 2 m/s 551 mmHg 67%
    09:00 +14°C° 0 mm 3 m/s 552 mmHg 58%
    10:00 +17°C° 0 mm 3 m/s 553 mmHg 48%
    11:00 +18°C° 0,1 mm 4 m/s 553 mmHg 45%
    12:00 +19°C° 0,1 mm 4 m/s 553 mmHg 42%
    13:00 +20°C° 0,1 mm 4 m/s 553 mmHg 40%
    14:00 +19°C° 0,1 mm 4 m/s 552 mmHg 42%
    15:00 +18°C° 0,1 mm 4 m/s 552 mmHg 45%
    16:00 +18°C° 0,1 mm 4 m/s 551 mmHg 47%
    17:00 +14°C° 0,1 mm 3 m/s 550 mmHg 57%
    18:00 +12°C° 0,1 mm 3 m/s 549 mmHg 67%
    19:00 +9°C° 0,1 mm 2 m/s 548 mmHg 77%
    20:00 +9°C° 0 mm 2 m/s 549 mmHg 77%
    21:00 +9°C° 0 mm 2 m/s 549 mmHg 77%
    22:00 +9°C° 0 mm 2 m/s 550 mmHg 76%
    23:00 +9°C° 0 mm 2 m/s 549 mmHg 77%

    Après-demain, 20 Août, Lundi

    Heure Température Précipitation Vent Pression Humidité
    00:00 +9°C° 0 mm 2 m/s 549 mmHg 78%
    01:00 +9°C° 0 mm 2 m/s 549 mmHg 78%
    02:00 +9°C° 0 mm 2 m/s 549 mmHg 79%
    03:00 +9°C° 0 mm 2 m/s 548 mmHg 79%
    04:00 +8°C° 0 mm 2 m/s 548 mmHg 79%
    05:00 +9°C° 0 mm 2 m/s 548 mmHg 78%
    06:00 +9°C° 0 mm 2 m/s 549 mmHg 76%
    07:00 +10°C° 0 mm 2 m/s 549 mmHg 74%
    08:00 +11°C° 0 mm 3 m/s 550 mmHg 70%
    09:00 +12°C° 0 mm 3 m/s 551 mmHg 65%
    10:00 +14°C° 0 mm 4 m/s 552 mmHg 61%
    11:00 +15°C° 0 mm 4 m/s 552 mmHg 55%
    12:00 +17°C° 0 mm 4 m/s 553 mmHg 50%
    13:00 +18°C° 0 mm 4 m/s 553 mmHg 44%
    14:00 +18°C° 0 mm 4 m/s 552 mmHg 46%
    15:00 +17°C° 0 mm 4 m/s 551 mmHg 47%
    16:00 +17°C° 0 mm 4 m/s 551 mmHg 49%
    17:00 +14°C° 0,1 mm 3 m/s 550 mmHg 57%
    18:00 +12°C° 0,1 mm 3 m/s 550 mmHg 66%
    19:00 +10°C° 0,1 mm 2 m/s 549 mmHg 74%
    20:00 +10°C° 0 mm 2 m/s 549 mmHg 76%
    21:00 +9°C° 0 mm 2 m/s 550 mmHg 77%
    22:00 +9°C° 0 mm 2 m/s 550 mmHg 79%
    23:00 +9°C° 0,1 mm 2 m/s 550 mmHg 80%

    21 Août, Mardi

    Heure Température Précipitation Vent Pression Humidité
    00:00 +9°C° 0,1 mm 2 m/s 550 mmHg 82%
    01:00 +9°C° 0,1 mm 2 m/s 550 mmHg 83%
    02:00 +9°C° 0,3 mm 2 m/s 549 mmHg 84%
    03:00 +9°C° 0,3 mm 2 m/s 549 mmHg 85%
    04:00 +9°C° 0,3 mm 2 m/s 549 mmHg 86%
    05:00 +9°C° 0,3 mm 2 m/s 549 mmHg 85%
    06:00 +9°C° 0,3 mm 2 m/s 549 mmHg 84%
    07:00 +9°C° 0,3 mm 2 m/s 550 mmHg 83%
    08:00 +11°C° 0,1 mm 3 m/s 550 mmHg 78%
    09:00 +12°C° 0,1 mm 3 m/s 551 mmHg 72%
    10:00 +13°C° 0,1 mm 4 m/s 552 mmHg 67%
    11:00 +14°C° 0,1 mm 4 m/s 552 mmHg 64%
    12:00 +14°C° 0,1 mm 4 m/s 552 mmHg 61%
    13:00 +15°C° 0,1 mm 4 m/s 552 mmHg 59%
    14:00 +15°C° 0,1 mm 4 m/s 551 mmHg 58%
    15:00 +16°C° 0,1 mm 3 m/s 551 mmHg 58%
    16:00 +16°C° 0,1 mm 3 m/s 550 mmHg 57%
    17:00 +13°C° 0,1 mm 3 m/s 550 mmHg 64%
    18:00 +11°C° 0,1 mm 3 m/s 549 mmHg 72%
    19:00 +10°C° 0,1 mm 2 m/s 549 mmHg 80%
    20:00 +10°C° 0 mm 2 m/s 549 mmHg 79%
    21:00 +9°C° 0 mm 2 m/s 549 mmHg 79%
    22:00 +9°C° 0 mm 2 m/s 550 mmHg 79%
    23:00 +9°C° 0,1 mm 2 m/s 550 mmHg 80%

    22 Août, Mercredi

    Heure Température Précipitation Vent Pression Humidité
    00:00 +9°C° 0,1 mm 2 m/s 549 mmHg 81%
    01:00 +9°C° 0,1 mm 2 m/s 549 mmHg 82%
    02:00 +9°C° 0,3 mm 2 m/s 549 mmHg 83%
    03:00 +9°C° 0,3 mm 2 m/s 549 mmHg 85%
    04:00 +9°C° 0,3 mm 2 m/s 548 mmHg 86%
    05:00 +9°C° 0,4 mm 2 m/s 549 mmHg 86%
    06:00 +9°C° 0,4 mm 2 m/s 549 mmHg 86%
    07:00 +9°C° 0,4 mm 2 m/s 549 mmHg 85%
    08:00 +10°C° 0,3 mm 2 m/s 550 mmHg 81%
    09:00 +11°C° 0,3 mm 3 m/s 551 mmHg 76%
    10:00 +12°C° 0,3 mm 3 m/s 552 mmHg 71%
    11:00 +13°C° 0,2 mm 3 m/s 552 mmHg 68%
    12:00 +14°C° 0,2 mm 3 m/s 552 mmHg 65%
    13:00 +14°C° 0,2 mm 3 m/s 551 mmHg 62%
    14:00 +14°C° 0,2 mm 3 m/s 551 mmHg 62%
    15:00 +14°C° 0,2 mm 3 m/s 550 mmHg 61%
    16:00 +14°C° 0,2 mm 3 m/s 550 mmHg 60%
    17:00 +14°C° 0,1 mm 2 m/s 550 mmHg 67%
    18:00 +12°C° 0,1 mm 2 m/s 549 mmHg 74%
    19:00 +9°C° 0,1 mm 2 m/s 549 mmHg 80%
    20:00 +9°C° 0 mm 2 m/s 549 mmHg 80%
    21:00 +9°C° 0 mm 2 m/s 549 mmHg 80%
    22:00 +8°C° 0 mm 2 m/s 549 mmHg 80%
    23:00 +8°C° 0 mm 2 m/s 549 mmHg 81%

    23 Août, Jeudi

    Heure Température Précipitation Vent Pression Humidité
    00:00 +8°C° 0 mm 2 m/s 549 mmHg 81%
    01:00 +8°C° 0 mm 2 m/s 548 mmHg 82%
    02:00 +8°C° 0 mm 2 m/s 548 mmHg 83%
    03:00 +8°C° 0 mm 2 m/s 548 mmHg 83%
    04:00 +8°C° 0 mm 2 m/s 548 mmHg 84%
    05:00 +9°C° 0,1 mm 2 m/s 548 mmHg 82%
    06:00 +9°C° 0,1 mm 2 m/s 549 mmHg 80%
    07:00 +10°C° 0,1 mm 2 m/s 549 mmHg 78%
    08:00 +12°C° 0,1 mm 2 m/s 551 mmHg 72%
    09:00 +13°C° 0,1 mm 3 m/s 552 mmHg 65%
    10:00 +16°C° 0,1 mm 3 m/s 553 mmHg 58%
    11:00 +16°C° 0,1 mm 3 m/s 552 mmHg 55%
    12:00 +17°C° 0,1 mm 3 m/s 552 mmHg 52%
    13:00 +18°C° 0,1 mm 3 m/s 552 mmHg 50%
    14:00 +17°C° 0,2 mm 3 m/s 551 mmHg 51%
    15:00 +17°C° 0,2 mm 3 m/s 551 mmHg 53%
    16:00 +16°C° 0,2 mm 3 m/s 550 mmHg 55%
    17:00 +14°C° 0,2 mm 2 m/s 549 mmHg 63%
    18:00 +12°C° 0,2 mm 2 m/s 549 mmHg 72%
    19:00 +10°C° 0,2 mm 1 m/s 548 mmHg 81%
    20:00 +9°C° 0,1 mm 2 m/s 548 mmHg 80%
    21:00 +9°C° 0,1 mm 2 m/s 549 mmHg 79%
    22:00 +8°C° 0,1 mm 2 m/s 549 mmHg 79%
    23:00 +8°C° 0 mm 2 m/s 548 mmHg 78%
    Voir plus